Home > Weather > Brentwood > Past weeks

Flag for United Kingdom Weather for the Past 2 Weeks in Brentwood, England, United Kingdom

Now
40 °F

Quite cool.


Feels Like: 35 °F
Forecast: 35 / 45 °F
Wind: 7 mph from Southeast

Location: Gravesend-Broadness

Current Time: Feb 12, 2016 at 10:26:07 AM

Latest Report: Feb 12, 2016 at 9:00 AM


Visibility: N/A

Pressure: 29.38 "Hg

Humidity: 99%

Dew point: 40 °F

Location of BrentwoodLocation

Historic Weather in Brentwood — Graph

°F

Brentwood Temperature Yesterday

Maximum temperature yesterday: 51 °F (at 1:00 PM)
Minimum temperature yesterday: 29 °F (at 7:00 AM)
Average temperature yesterday: 39 °F

High & Low Weather Summary for the Past Weeks

 TemperatureHumidityPressure
High57 °F (Feb 1, 2:00 PM)100% (Jan 31, 11:00 AM)30.29 "Hg (Jan 31, 11:00 AM)
Low29 °F (Feb 11, 7:00 AM)47% (Feb 11, 3:00 PM)29.06 "Hg (Feb 7, 11:00 PM)
Average47 °F80%29.70 "Hg
* Reported Jan 28 10:00 AM — Feb 12 9:00 AM, Brentwood, Weather by CustomWeather, © 2016

Note: Actual official high and low records may vary slightly from our data, if they occured in-between our weather recording intervals... More about our weather records

Advertising

Brentwood Weather History for the Previous 24 Hours

 ConditionsComfort  
Time TempWeatherWind HumidityBarometerVisibility
9:00 AM
Fri, Feb 12
40 °FQuite cool.7 mph99%29.38 "HgN/A
8:00 AM38 °FChilly.8 mph100%29.38 "HgN/A
7:00 AM37 °FChilly.8 mph100%29.38 "HgN/A
6:00 AM35 °FChilly.5 mph98%29.41 "HgN/A
5:00 AM38 °FChilly.5 mph98%29.44 "HgN/A
4:00 AM36 °FChilly.8 mph99%29.44 "HgN/A
3:00 AM35 °FChilly.3 mph100%29.47 "HgN/A
8:00 PM
Thu, Feb 11
38 °FChilly.7 mph80%29.61 "HgN/A
7:00 PM38 °FChilly.5 mph79%29.62 "HgN/A
6:00 PM37 °FChilly.6 mph77%29.62 "HgN/A
5:00 PM43 °FQuite cool.3 mph61%29.61 "HgN/A
4:00 PM47 °FCool.7 mph58%29.62 "HgN/A
3:00 PM49 °FCool.9 mph47%29.62 "HgN/A
2:00 PM48 °FCool.9 mph55%29.63 "HgN/A
1:00 PM51 °FCool.6 mph57%29.64 "HgN/A
12:00 PM44 °FQuite cool.2 mph70%29.65 "HgN/A
11:00 AM42 °FQuite cool.2 mph75%29.67 "HgN/A
10:00 AM38 °FChilly.2 mph100%29.67 "HgN/A
Weather by CustomWeather, © 2016

See weather overviewHow to use our weather pages